Location: Potawatomi Wildlife Park
(41.2308°N, 86.1050°W)
Time: 06:47:08
(UTC-04:00)

Daily predictions for brighter satellites

Satellite Brightness Start Highest point End
(mag) Time Altitude Azimuth Time Altitude Azimuth Time Altitude Azimuth
BREEZE-M DEB (TANK) 4.1 21:18:00 10° WNW 21:21:44 85° SSW 21:34:14 10° ESE
Lacrosse 5 rocket 4.4 21:32:29 10° WNW 21:35:24 17° NNW 21:38:22 10° NNE
CZ-4B DEB 3.3 21:32:46 10° SE 21:35:33 37° ENE 21:38:22 10° N
Helios 1A 3.1 21:31:32 10° SSE 21:35:42 63° ENE 21:39:53 10° N
Meteor 1-29 3.3 21:37:10 10° NNE 21:40:25 43° E 21:43:37 10° S
SJ-11-01 4.4 21:38:14 10° SSE 21:42:51 64° ENE 21:47:30 10° N
Cosmos 1656 Rocket 4.0 21:38:58 10° NNW 21:44:17 52° ENE 21:49:38 10° SE
Cosmos 2369 Rocket 3.6 21:40:05 10° NW 21:45:13 36° WSW 21:50:21 10° S
YAOGAN 6 3.3 21:42:29 10° SE 21:45:42 35° ENE 21:48:55 10° N
SAR-Lupe-4 3.6 21:42:21 10° SSE 21:45:53 67° ENE 21:49:27 10° N
ERS-1 Rocket 3.7 21:42:00 10° SE 21:46:33 36° ENE 21:51:08 10° N
Cosmos 1544 Rocket 3.7 21:45:25 10° NNW 21:49:44 74° W 21:54:02 10° S
Cosmos 1818 3.6 21:44:25 10° SSW 21:49:51 82° ESE 21:55:19 10° NE
RESURS DK-1 3.4 21:47:24 10° SW 21:51:25 51° WNW 21:55:29 10° NNE
Cosmos 405 Rocket 3.1 21:48:06 10° SSE 21:51:39 42° E 21:55:15 10° NNE
Okean 1 4.0 21:50:17 10° SSW 21:54:11 58° W 21:58:07 10° N
Resurs 01 Rocket 3.5 21:50:47 10° SSW 21:54:43 31° W 21:58:40 10° NW
NOSS 2-2 (D) 3.4 21:51:07 10° SSW 21:55:01 63° ESE 21:59:28 10° NE
H-2A R/B 3.8 21:53:26 10° E 21:56:24 16° ENE 21:59:24 10° NNE
Cosmos 1975 3.3 21:53:39 10° NNW 21:57:41 65° W 22:01:43 10° S
Cosmos 2112 Rocket 4.5 21:54:52 10° S 21:59:42 39° ESE 22:04:32 10° NE
Cosmos 1943 Rocket 2.9 21:54:57 10° NNW 22:00:23 51° WSW 22:05:43 10° S
Cosmos 773 Rocket 4.1 21:55:16 10° SSW 22:00:25 81° WNW 22:05:36 10° NNE
CENTAUR R/B 3.2 21:53:31 10° NNW 22:01:27 79° NE 22:09:18 13° SE
Cosmos 1025 Rocket 4.2 21:58:34 12° SE 22:01:36 24° E 22:05:03 10° NE
SAR-Lupe-1 4.1 21:59:05 10° SSE 22:02:40 87° WSW 22:06:17 10° NNW
USA 81 4.1 21:58:13 10° S 22:03:30 89° ESE 22:08:50 10° N
Cosmos 1500 4.3 22:00:11 10° NNW 22:03:47 43° W 22:07:20 10° SSW
Cosmos 1441 Rocket 4.0 22:01:18 11° SSE 22:04:25 31° E 22:07:44 10° NNE
Meteor 1-13 Rocket 4.3 22:00:20 10° S 22:06:15 74° E 22:12:09 10° NNE
Nadezhda 1 Rocket 4.3 22:01:34 10° SSE 22:07:38 50° E 22:13:47 10° NNE
PSLV R/B 3.0 22:04:42 10° W 22:07:49 89° SSW 22:10:40 12° E
Helios 1B rocket 3.1 22:06:47 10° N 22:10:51 59° WNW 22:14:54 10° SSW
Cosmos 1939 Rocket 3.3 22:09:00 10° S 22:12:48 57° W 22:16:37 10° NNW
NOSS 2-2 (C) 3.5 22:09:47 10° SW 22:13:47 83° NW 22:18:22 10° NNE
Cosmos 1455 Rocket 4.1 22:10:52 10° NNW 22:15:02 45° W 22:19:10 10° SSW
COSMOS 2406 3.2 22:10:18 10° SSW 22:16:00 75° ESE 22:21:43 10° NNE
COSMOS 2455 3.6 22:10:30 10° NW 22:16:16 49° WSW 22:22:01 10° S
ARGOS 3.8 22:13:33 15° SE 22:17:34 41° ENE 22:22:38 10° N
Cosmos 374 Rocket 4.2 22:13:56 10° NW 22:17:43 85° NE 22:20:27 19° SE
SL-27 R/B 2.9 22:14:29 10° S 22:17:56 42° ESE 22:21:25 10° NNE
Cosmos 1680 Rocket 3.4 22:17:59 10° SSW 22:23:12 77° ESE 22:28:26 10° NNE
SPOT 5 3.2 22:23:04 20° SE 22:25:41 41° ENE 22:29:46 10° N
Cosmos 1346 3.1 22:23:39 10° SSW 22:26:24 67° W 22:29:09 10° N
H-2A R/B 4.2 22:24:49 11° E 22:26:55 15° ENE 22:29:22 10° NNE
Cosmos 2082 Rocket 3.9 22:28:02 14° E 22:28:23 14° E 22:31:04 10° ENE
Cosmos 1743 3.3 22:25:05 10° NNW 22:28:53 55° W 22:32:37 10° S
Cosmos 405 3.1 22:29:44 10° N 22:33:16 57° ENE 22:34:56 28° SSE
ASTRO E2 4.3 22:35:05 10° SW 22:37:53 18° S 22:38:11 18° S
Terra 3.5 22:37:12 16° E 22:39:14 21° ENE 22:42:43 10° NNE
ASTEX 1 3.6 22:36:30 12° S 22:41:03 72° W 22:45:58 10° N
MetOp-B 4.1 22:40:01 19° SSE 22:43:56 88° ENE 22:49:19 10° NNW
Cosmos 2341 Rocket 4.4 22:37:47 10° N 22:43:56 50° ENE 22:47:39 24° SE
Tiangong 2 1.1 22:41:48 10° SW 22:44:53 52° SSE 22:45:36 41° ESE
SPOT 1/Viking Rocket 3.8 22:44:16 25° SE 22:47:06 53° ENE 22:52:07 10° N
Cosmos 1437 Rocket 3.0 22:44:24 10° N 22:48:09 50° ENE 22:49:25 34° SE
Aureole 3 Rocket 4.4 22:43:09 10° SSW 22:49:49 55° W 22:54:35 10° N
Okean 1-7 Rocket 3.6 22:46:16 13° S 22:50:09 82° W 22:54:40 10° N
Okean 2 3.3 22:50:04 27° S 22:52:13 70° E 22:56:18 10° NNE
Cosmos 1697 Rocket 4.4 22:49:15 10° N 22:53:19 20° NE 22:56:25 13° E
Cosmos 1238 Rocket 4.3 22:47:20 10° S 22:54:02 79° W 23:00:41 10° N
Meteor 2-9 Rocket 4.4 22:50:14 10° NNW 22:55:39 69° W 22:59:47 18° S
Aureole 1 Rocket 3.3 22:52:35 10° SW 22:55:52 45° WNW 22:58:47 10° N
ISS -4.0 22:54:02 10° SW 22:57:20 78° SE 23:00:37 10° ENE
Cosmos 1666 4.1 22:55:52 10° NNW 22:59:17 34° W 23:01:54 15° SSW
Meteor 2-4 Rocket 4.4 22:57:05 10° SSW 23:02:34 56° WNW 23:08:16 10° N
DNEPR-1 R/B 4.0 22:58:30 10° NW 23:02:40 53° WSW 23:04:38 30° S
Cosmos 1892 Rocket 3.7 23:01:37 36° SSE 23:03:12 57° E 23:07:33 10° NNE
Cosmos 1371 Rocket 4.0 23:00:17 10° NNW 23:05:39 88° ENE 23:08:06 33° SSE
Cosmos 2228 3.6 23:01:59 10° N 23:06:02 39° ENE 23:06:54 35° ESE
OAO 2 Rocket 3.7 23:04:30 10° WSW 23:09:11 41° S 23:10:01 38° SSE
deb Chang Zheng 4 4.5 23:07:44 10° NE 23:11:26 30° E 23:11:26 30° E
Cosmos 921 Rocket 3.4 23:07:22 10° N 23:11:46 50° ENE 23:12:53 40° ESE
Cosmos 1833 Rocket 3.5 23:11:23 30° ESE 23:11:53 30° ESE 23:16:43 10° NE
USA 245 3.4 23:16:10 38° WSW 23:16:12 38° WSW 23:18:35 10° NNW
Cosmos 2181 Rocket 4.0 23:13:08 26° S 23:16:57 76° E 23:23:16 10° N
Cosmos 1606 Rocket 3.5 23:13:02 10° N 23:17:21 76° W 23:18:50 40° S
SL-19 R/B 4.5 23:16:36 10° NNE 23:21:46 45° E 23:22:50 40° SE
SL-24 DEB 4.4 23:21:37 34° SSW 23:23:32 69° W 23:28:10 10° N
Cosmos 1726 Rocket 3.6 23:24:00 10° NNW 23:28:18 69° W 23:29:30 45° SSW
Cosmos 1515 3.9 23:28:01 45° SW 23:28:58 65° W 23:32:46 10° N
Meteor 1-4 Rocket 3.5 23:27:18 10° N 23:30:20 36° ENE 23:30:20 36° ENE
USA 267 3.6 23:26:50 10° ENE 23:32:55 40° SE 23:34:03 37° SSE
Cosmos 2058 Rocket 3.0 23:30:32 10° N 23:34:56 81° W 23:35:51 56° S
H-2A R/B 2.2 23:33:29 37° SSW 23:35:16 62° W 23:40:15 10° NNW
CARTOSAT-1 3.4 23:36:38 63° SE 23:37:13 75° ENE 23:41:33 10° N
Cosmos 1980 Rocket 3.6 23:35:35 10° N 23:40:23 27° NE 23:42:26 22° E
DMSP B5D2-2 4.1 23:40:05 10° N 23:45:24 79° WNW 23:47:34 37° SSW
SeaSat 1 4.3 23:46:39 16° E 23:48:36 20° NE 23:52:09 10° N
Cosmos 864 Rocket 4.5 23:43:26 10° N 23:49:45 70° E 23:51:34 47° SSE
